Location: Dehesa de la Cepeda
(40.6574°N, 4.3013°W)
Time: 05:33:52
(UTC+00:00)

Courier 1B Rocket - Pass Details

Date: 04 August 2021
Orbit: 920 x 1202 km, 28.3° (Epoch: 19 September)

Event Time Altitude Azimuth Distance (km) Brightness Sun altitude
Exits shadow 02:06:50 16° 130° (SE) 2,310 6.8 -27.3°
Drops below altitude 10° 02:08:16 10° 121° (ESE) 2,692 7.3 -27.2°
Sets 02:11:14 0° 109° (ESE) 3,605 8.1 -26.9°
